Location: *
(37.5724°S, 58.0067°E)
Time: 01:46:53
(UTC+00:00)

X-37B - Pass Details

Date: 01 December 2020
Orbit: 385 x 390 km, 45.0° (Epoch: 20 January)

Event Time Altitude Azimuth Distance (km) Brightness Sun altitude
Exits shadow 22:38:17 10° 48° (NE) 1,422 3.4 -19.4°
Drops below altitude 10° 22:38:28 10° 52° (NE) 1,430 3.5 -19.4°
Sets 22:42:21 0° 98° (E) 2,315 5.3 -18.9°
